Weather History for Beaumont / Port Arthur, TX

Change the Weather History Date:

Tuesday, February 12, 2013

  Actual Average (KBPT) Record (KBPT)
Temperature  
Mean Temperature 58 °F 55 °F  
Max Temperature 64 °F 65 °F 83 °F (1922)
Min Temperature 53 °F 46 °F 25 °F (1963)
Degree Days  
Heating Degree Days 6 10  
Month to date heating degree days 132  
Since 1 July heating degree days 1075  
Cooling Degree Days 0 1  
Month to date cooling degree days 6  
Year to date cooling degree days 17  
Growing Degree Days 8 (Base 50)    
Moisture  
Dew Point 54 °F    
Average Humidity 88    
Maximum Humidity 94    
Minimum Humidity 77    
Precipitation  
Precipitation 0.00 in 0.13 in 2.88 in (1997)
Month to date precipitation 1.60  
Year to date precipitation 6.86  
Snow  
Snow 0.00 in 0.00 in 3.50 in (1960)
Month to date snowfall 0.0  
Since 1 July snowfall T  
Snow Depth -    
Sea Level Pressure  
Sea Level Pressure 29.88 in    
Wind  
Wind Speed 8 mph (NNE)    
Max Wind Speed 15 mph    
Max Gust Speed 20 mph    
Visibility 6 miles    
Events Fog , Rain , Thunderstorm    
T = Trace of Precipitation, MM = Missing Value Source: NWS Daily Summary

Daily Weather History Graph

Daily Weather History Graph

Search for Another Location

Airport:

Trip Planner

Search our weather history database for the weather conditions in past years. The results will help you decide how hot, cold, wet, or windy it might be!

Date:

Astronomy

Feb. 12, 2013 Rise Set
Actual Time 6:59 AM CST 6:03 PM CST
Civil Twilight 6:34 AM CST 6:28 PM CST
Nautical Twilight 6:06 AM CST 6:56 PM CST
Astronomical Twilight 5:38 AM CST 7:24 PM CST
Moon 8:12 AM CST (2/12) 8:47 PM CST (2/12)
Length of Visible Light 11h 53m
Length of Day
11h 04m
Waxing Crescent, 7% of the Moon is Illuminated
Feb 12
Waxing Crescent
Feb 17
First Quarter
Feb 25
Full
Mar 4
Last Quarter
Mar 11
New

Hourly Weather History & Observations

Time (CST) Temp. Dew Point Humidity Pressure Visibility Wind Dir Wind Speed Gust Speed Precip Events Conditions
12:15 AM 53.6 °F 50.0 °F 88% 29.99 in 10.0 mi NE 8.1 mph - N/A   Overcast
12:35 AM 53.6 °F 50.0 °F 88% 29.98 in 10.0 mi ENE 10.4 mph 16.1 mph N/A   Overcast
12:55 AM 53.6 °F 50.0 °F 88% 29.97 in 10.0 mi NE 11.5 mph - N/A   Overcast
1:15 AM 53.6 °F 50.0 °F 88% 29.97 in 10.0 mi NE 9.2 mph 17.3 mph N/A   Overcast
1:35 AM 53.6 °F 50.0 °F 88% 29.97 in 10.0 mi NE 9.2 mph - N/A   Overcast
1:55 AM 53.6 °F 50.0 °F 88% 29.96 in 10.0 mi NE 8.1 mph - N/A   Overcast
2:35 AM 53.6 °F 50.0 °F 88% 29.94 in 10.0 mi ENE 9.2 mph - N/A   Overcast
2:55 AM 53.6 °F 51.8 °F 94% 29.94 in 10.0 mi East 9.2 mph - N/A   Light Drizzle
3:15 AM 53.6 °F 51.8 °F 94% 29.94 in 7.0 mi ENE 9.2 mph - N/A   Overcast
3:35 AM 53.6 °F 51.8 °F 94% 29.92 in 5.0 mi ENE 8.1 mph - N/A Rain Light Rain
3:55 AM 53.6 °F 51.8 °F 94% 29.92 in 7.0 mi ENE 6.9 mph - N/A   Overcast
4:35 AM 53.6 °F 51.8 °F 94% 29.91 in 5.0 mi ENE 8.1 mph - N/A Rain Light Rain
5:15 AM 53.6 °F 51.8 °F 94% 29.89 in 5.0 mi East 8.1 mph - N/A   Overcast
5:35 AM 55.4 °F 51.8 °F 88% 29.88 in 5.0 mi East 6.9 mph - N/A   Overcast
5:55 AM 55.4 °F 51.8 °F 88% 29.88 in 4.0 mi East 8.1 mph - N/A   Overcast
6:15 AM 55.4 °F 53.6 °F 94% 29.87 in 4.0 mi East 6.9 mph - N/A Rain Light Rain
6:35 AM 55.4 °F 53.6 °F 94% 29.87 in 3.0 mi East 8.1 mph - N/A Thunderstorm Unknown
6:55 AM 55.4 °F 53.6 °F 94% 29.87 in 2.5 mi East 8.1 mph - N/A Thunderstorm Overcast
7:15 AM 55.4 °F 53.6 °F 94% 29.86 in 3.0 mi East 8.1 mph - N/A Thunderstorm Overcast
7:35 AM 55.4 °F 53.6 °F 94% 29.85 in 1.5 mi East 9.2 mph - N/A   Overcast
7:55 AM 55.4 °F 53.6 °F 94% 29.85 in 2.0 mi ESE 4.6 mph - N/A   Overcast
8:15 AM 55.4 °F 53.6 °F 94% 29.86 in 2.5 mi ESE 5.8 mph - N/A   Overcast
8:35 AM 55.4 °F 53.6 °F 94% 29.85 in 1.0 mi ESE 4.6 mph - N/A   Overcast
8:55 AM 57.2 °F 53.6 °F 88% 29.86 in 0.8 mi ESE 3.5 mph - N/A   Overcast
9:15 AM 57.2 °F 55.4 °F 94% 29.86 in 1.0 mi ESE 5.8 mph - N/A   Overcast
9:35 AM 59.0 °F 55.4 °F 88% 29.86 in 1.0 mi ESE 3.5 mph - N/A   Overcast
9:55 AM 59.0 °F 55.4 °F 88% 29.85 in 0.8 mi ESE 3.5 mph - N/A   Overcast
10:15 AM 60.8 °F 57.2 °F 88% 29.83 in 1.2 mi ESE 5.8 mph - N/A   Overcast
10:35 AM 60.8 °F 59.0 °F 94% 29.84 in 0.8 mi ESE 5.8 mph - N/A   Overcast
10:55 AM 60.8 °F 59.0 °F 94% 29.84 in 1.0 mi SSE 3.5 mph - N/A   Overcast
11:15 AM 62.6 °F 60.8 °F 94% 29.84 in 1.2 mi Calm Calm - N/A   Overcast
11:35 AM 62.6 °F 60.8 °F 94% 29.83 in 1.0 mi Calm Calm - N/A   Overcast
11:55 AM 62.6 °F 60.8 °F 94% 29.83 in 1.0 mi Calm Calm - N/A Rain Light Rain
12:15 PM 62.6 °F 60.8 °F 94% 29.82 in 0.8 mi Calm Calm - N/A   Drizzle
12:35 PM 62.6 °F 60.8 °F 94% 29.81 in 0.5 mi Calm Calm - N/A Rain Rain
12:55 PM 64.4 °F 60.8 °F 88% 29.80 in 0.5 mi Calm Calm - N/A Fog Fog
1:15 PM 64.4 °F 62.6 °F 94% 29.79 in 0.8 mi Calm Calm - N/A   Overcast
1:35 PM 64.4 °F 62.6 °F 94% 29.79 in 1.0 mi WNW 6.9 mph - N/A   Overcast
2:15 PM 62.6 °F 60.8 °F 94% 29.79 in 1.0 mi NW 10.4 mph - N/A   Overcast
2:35 PM 62.6 °F 59.0 °F 88% 29.80 in 1.5 mi WNW 12.7 mph 17.3 mph N/A   Overcast
2:55 PM 60.8 °F 59.0 °F 94% 29.80 in 3.0 mi NW 15.0 mph 19.6 mph N/A   Overcast
3:15 PM 60.8 °F 57.2 °F 88% 29.80 in 10.0 mi NNW 15.0 mph 18.4 mph N/A   Overcast
3:35 PM 60.8 °F 55.4 °F 82% 29.81 in 10.0 mi NW 11.5 mph - N/A   Overcast
3:55 PM 60.8 °F 55.4 °F 82% 29.81 in 10.0 mi NW 12.7 mph - N/A   Overcast
4:15 PM 60.8 °F 53.6 °F 77% 29.82 in 10.0 mi NW 9.2 mph - N/A   Overcast
4:35 PM 60.8 °F 53.6 °F 77% 29.83 in 10.0 mi NW 9.2 mph - N/A   Overcast
4:55 PM 60.8 °F 53.6 °F 77% 29.84 in 10.0 mi NW 11.5 mph - N/A   Overcast
5:15 PM 60.8 °F 53.6 °F 77% 29.83 in 10.0 mi NW 10.4 mph - N/A   Overcast
5:35 PM 59.0 °F 53.6 °F 82% 29.83 in 10.0 mi NW 8.1 mph - N/A   Overcast
6:15 PM 59.0 °F 53.6 °F 82% 29.86 in 10.0 mi NW 11.5 mph - N/A   Overcast
6:35 PM 59.0 °F 51.8 °F 77% 29.86 in 10.0 mi NW 11.5 mph - N/A   Overcast
6:55 PM 59.0 °F 51.8 °F 77% 29.86 in 10.0 mi NW 8.1 mph - N/A   Overcast
7:35 PM 57.2 °F 51.8 °F 82% 29.88 in 10.0 mi NW 6.9 mph - N/A   Mostly Cloudy
8:15 PM 55.4 °F 50.0 °F 82% 29.89 in 10.0 mi NNW 6.9 mph - N/A   Clear
8:35 PM 55.4 °F 50.0 °F 82% 29.89 in 10.0 mi NNW 5.8 mph - N/A   Clear
8:55 PM 55.4 °F 50.0 °F 82% 29.90 in 10.0 mi NNW 5.8 mph - N/A   Clear
9:35 PM 55.4 °F 48.2 °F 77% 29.92 in 10.0 mi NNW 8.1 mph - N/A   Clear
9:55 PM 55.4 °F 48.2 °F 77% 29.93 in 10.0 mi NNW 5.8 mph - N/A   Clear
10:15 PM 53.6 °F 48.2 °F 82% 29.94 in 10.0 mi NNW 5.8 mph - N/A   Clear
10:35 PM 53.6 °F 48.2 °F 82% 29.94 in 10.0 mi NNW 5.8 mph - N/A   Clear
10:55 PM 53.6 °F 48.2 °F 82% 29.94 in 10.0 mi NW 4.6 mph - N/A   Clear
11:15 PM 53.6 °F 46.4 °F 77% 29.95 in 10.0 mi WNW 3.5 mph - N/A   Clear
11:35 PM 53.6 °F 48.2 °F 82% 29.94 in 10.0 mi NW 4.6 mph - N/A   Clear
11:55 PM 53.6 °F 48.2 °F 82% 29.96 in 10.0 mi NW 6.9 mph - N/A   Clear